Погода во Фромборке

Польша     54°21′27″N   19°40′49″E
темп.,
°C
ветер,
м/с
пор.,
м/с
влажн.,
%
обл.,
%
осадки,
мм/ч
давл.,
гПа
погр.,
м
28 февраля, вс
вс2801:00+2зюз378149 0.0 1032202
04:00+2з498888 0.0 1030261
07:00+2з5119755 0.0 1030327
10:00+4зсз6109076 0.0 1029603
13:00+4сз6118687 0.0 1030538
16:00+4сз598866 0.0 1029396
19:00+2сз4119233 0.0 1030311
22:00+2сз37910 0.0 1031145
1 марта, пн
пн101:00+2сз34900 0.0 103375
04:00+2сз33920 0.0 103263
07:00+2зсз22900 0.0 103322
10:00+6зюз24750 0.0 1033240
13:00+9юз47680 0.0 1033409
16:00+9зюз49720 0.0 1031504
19:00+5зюз410830 0.0 1031245
22:00+3зюз410810 0.0 1030274
2 марта, вт
вт201:00+2зюз410890 0.0 1030282
04:00+2з410920 0.0 1028305
07:00+2з512932 0.0 1028395
10:00+4зсз6108985 0.0 1029454
13:00+5сз598483 0.0 1030451
16:00+4сз478617 0.0 1030323
19:00+2сз23949 0.0 103176
22:00+1с129112 0.0 103222
3 марта, ср
ср301:00+1ююз118851 0.0 103222
04:00+1ююз128865 0.0 103122
07:00+1ююз239132 0.0 103137
10:00+5юз358067 0.0 1029344
13:00+7юз467537 0.0 1027521
16:00+7юз36742 0.0 1024389
19:00+4юз358425 0.0 102297
22:00+3зюз48842 0.0 1020149
4 марта, чт
чт401:00+2зюз36901 0.0 1018125
04:00+1зюз35920 0.0 1015105
07:00+1зюз36950 0.0 1013130
10:00+5зсз478315 0.0 1012496
13:00+5сз578049 0.0 1012677
16:00+1с599497 0.1 1012425
19:000ссв5107599 0.1 1013730
22:000ссв4975100 0.0 1014682